Year,Month,Day,Hour,Minute,Value (Times are PST for temperature in C)
2015,07,20,00,00,24.50
2015,07,20,00,01,24.50
2015,07,20,00,02,24.40
2015,07,20,00,03,24.40
2015,07,20,00,04,24.40
2015,07,20,00,05,24.40
2015,07,20,00,06,24.40
2015,07,20,00,07,24.50
2015,07,20,00,08,24.50
2015,07,20,00,09,24.50
2015,07,20,00,10,24.50
2015,07,20,00,11,24.50
2015,07,20,00,12,24.50
2015,07,20,00,13,24.50
2015,07,20,00,14,24.50
2015,07,20,00,15,24.50
2015,07,20,00,16,24.50
2015,07,20,00,17,24.40
2015,07,20,00,18,24.40
2015,07,20,00,19,24.40
2015,07,20,00,20,24.30
2015,07,20,00,21,24.30
2015,07,20,00,22,24.30
2015,07,20,00,23,24.20
2015,07,20,00,24,24.20
2015,07,20,00,25,24.10
2015,07,20,00,26,24.00
2015,07,20,00,27,24.00
2015,07,20,00,28,23.90
2015,07,20,00,29,23.90
2015,07,20,00,30,23.80
2015,07,20,00,31,23.70
2015,07,20,00,32,23.70
2015,07,20,00,33,23.70
2015,07,20,00,34,23.60
2015,07,20,00,35,23.60
2015,07,20,00,36,23.60
2015,07,20,00,37,23.50
2015,07,20,00,38,23.50
2015,07,20,00,39,23.40
2015,07,20,00,40,23.40
2015,07,20,00,41,23.40
2015,07,20,00,42,23.30
2015,07,20,00,43,23.30
2015,07,20,00,44,23.30
2015,07,20,00,45,23.30
2015,07,20,00,46,23.30
2015,07,20,00,47,23.20
2015,07,20,00,48,23.20
2015,07,20,00,49,23.20
2015,07,20,00,50,23.10
2015,07,20,00,51,23.00
2015,07,20,00,52,23.00
2015,07,20,00,53,22.90
2015,07,20,00,54,22.90
2015,07,20,00,55,23.00
2015,07,20,00,56,23.00
2015,07,20,00,57,23.00
2015,07,20,00,58,23.00
2015,07,20,00,59,23.00
2015,07,20,01,00,23.00
2015,07,20,01,01,22.90
2015,07,20,01,02,22.90
2015,07,20,01,03,22.90
2015,07,20,01,04,22.80
2015,07,20,01,05,22.90
2015,07,20,01,06,22.90
2015,07,20,01,07,22.90
2015,07,20,01,08,22.90
2015,07,20,01,09,22.90
2015,07,20,01,10,22.90
2015,07,20,01,11,22.90
2015,07,20,01,12,23.00
2015,07,20,01,13,23.00
2015,07,20,01,14,23.10
2015,07,20,01,15,23.10
2015,07,20,01,16,23.20
2015,07,20,01,17,23.20
2015,07,20,01,18,23.20
2015,07,20,01,19,23.20
2015,07,20,01,20,23.20
2015,07,20,01,21,23.30
2015,07,20,01,22,23.30
2015,07,20,01,23,23.30
2015,07,20,01,24,23.30
2015,07,20,01,25,23.20
2015,07,20,01,26,23.20
2015,07,20,01,27,23.20
2015,07,20,01,28,23.10
2015,07,20,01,29,23.10
2015,07,20,01,30,23.00
2015,07,20,01,31,23.00
2015,07,20,01,32,23.00
2015,07,20,01,33,23.00
2015,07,20,01,34,23.00
2015,07,20,01,35,23.00
2015,07,20,01,36,23.00
2015,07,20,01,37,23.00
2015,07,20,01,38,23.00
2015,07,20,01,39,23.00
2015,07,20,01,40,23.00
2015,07,20,01,41,23.00
2015,07,20,01,42,23.00
2015,07,20,01,43,23.00
2015,07,20,01,44,23.00
2015,07,20,01,45,23.10
2015,07,20,01,46,23.10
2015,07,20,01,47,23.20
2015,07,20,01,48,23.20
2015,07,20,01,49,23.20
2015,07,20,01,50,23.30
2015,07,20,01,51,23.30
2015,07,20,01,52,23.30
2015,07,20,01,53,23.30
2015,07,20,01,54,23.40
2015,07,20,01,55,23.40
2015,07,20,01,56,23.40
2015,07,20,01,57,23.40
2015,07,20,01,58,23.40
2015,07,20,01,59,23.40
2015,07,20,02,00,23.40
2015,07,20,02,01,23.40
2015,07,20,02,02,23.40
2015,07,20,02,03,23.30
2015,07,20,02,04,23.30
2015,07,20,02,05,23.20
2015,07,20,02,06,23.20
2015,07,20,02,07,23.10
2015,07,20,02,08,23.00
2015,07,20,02,09,22.90
2015,07,20,02,10,22.90
2015,07,20,02,11,22.80
2015,07,20,02,12,22.70
2015,07,20,02,13,22.60
2015,07,20,02,14,22.50
2015,07,20,02,15,22.40
2015,07,20,02,16,22.30
2015,07,20,02,17,22.30
2015,07,20,02,18,22.20
2015,07,20,02,19,22.10
2015,07,20,02,20,22.10
2015,07,20,02,21,22.00
2015,07,20,02,22,21.90
2015,07,20,02,23,21.80
2015,07,20,02,24,21.70
2015,07,20,02,25,21.60
2015,07,20,02,26,21.50
2015,07,20,02,27,21.40
2015,07,20,02,28,21.40
2015,07,20,02,29,21.30
2015,07,20,02,30,21.30
2015,07,20,02,31,21.30
2015,07,20,02,32,21.20
2015,07,20,02,33,21.10
2015,07,20,02,34,21.10
2015,07,20,02,35,21.00
2015,07,20,02,36,20.90
2015,07,20,02,37,20.80
2015,07,20,02,38,20.70
2015,07,20,02,39,20.60
2015,07,20,02,40,20.60
2015,07,20,02,41,20.50
2015,07,20,02,42,20.50
2015,07,20,02,43,20.40
2015,07,20,02,44,20.30
2015,07,20,02,45,20.30
2015,07,20,02,46,20.30
2015,07,20,02,47,20.20
2015,07,20,02,48,20.20
2015,07,20,02,49,20.10
2015,07,20,02,50,20.00
2015,07,20,02,51,20.00
2015,07,20,02,52,19.90
2015,07,20,02,53,19.90
2015,07,20,02,54,19.80
2015,07,20,02,55,19.80
2015,07,20,02,56,19.70
2015,07,20,02,57,19.70
2015,07,20,02,58,19.60
2015,07,20,02,59,19.50
2015,07,20,03,00,19.50
2015,07,20,03,01,19.40
2015,07,20,03,02,19.40
2015,07,20,03,03,19.30
2015,07,20,03,04,19.30
2015,07,20,03,05,19.20
2015,07,20,03,06,19.20
2015,07,20,03,07,19.10
2015,07,20,03,08,19.10
2015,07,20,03,09,19.00
2015,07,20,03,10,19.00
2015,07,20,03,11,18.90
2015,07,20,03,12,18.90
2015,07,20,03,13,18.80
2015,07,20,03,14,18.80
2015,07,20,03,15,18.80
2015,07,20,03,16,18.70
2015,07,20,03,17,18.70
2015,07,20,03,18,18.70
2015,07,20,03,19,18.60
2015,07,20,03,20,18.60
2015,07,20,03,21,18.50
2015,07,20,03,22,18.50
2015,07,20,03,23,18.40
2015,07,20,03,24,18.40
2015,07,20,03,25,18.30
2015,07,20,03,26,18.30
2015,07,20,03,27,18.20
2015,07,20,03,28,18.20
2015,07,20,03,29,18.20
2015,07,20,03,30,18.10
2015,07,20,03,31,18.10
2015,07,20,03,32,18.10
2015,07,20,03,33,18.10
2015,07,20,03,34,18.00
2015,07,20,03,35,18.00
2015,07,20,03,36,18.00
2015,07,20,03,37,17.90
2015,07,20,03,38,17.90
2015,07,20,03,39,17.90
2015,07,20,03,40,17.90
2015,07,20,03,41,17.80
2015,07,20,03,42,17.80
2015,07,20,03,43,17.80
2015,07,20,03,44,17.80
2015,07,20,03,45,17.80
2015,07,20,03,46,17.70
2015,07,20,03,47,17.70
2015,07,20,03,48,17.70
2015,07,20,03,49,17.60
2015,07,20,03,50,17.60
2015,07,20,03,51,17.60
2015,07,20,03,52,17.60
2015,07,20,03,53,17.60
2015,07,20,03,54,17.50
2015,07,20,03,55,17.50
2015,07,20,03,56,17.40
2015,07,20,03,57,17.40
2015,07,20,03,58,17.40
2015,07,20,03,59,17.40
2015,07,20,04,00,17.40
2015,07,20,04,01,17.30
2015,07,20,04,02,17.30
2015,07,20,04,03,17.30
2015,07,20,04,04,17.30
2015,07,20,04,05,17.30
2015,07,20,04,06,17.30
2015,07,20,04,07,17.30
2015,07,20,04,08,17.30
2015,07,20,04,09,17.30
2015,07,20,04,10,17.30
2015,07,20,04,11,17.20
2015,07,20,04,12,17.20
2015,07,20,04,13,17.20
2015,07,20,04,14,17.20
2015,07,20,04,15,17.20
2015,07,20,04,16,17.10
2015,07,20,04,17,17.10
2015,07,20,04,18,17.10
2015,07,20,04,19,17.10
2015,07,20,04,20,17.10
2015,07,20,04,21,17.10
2015,07,20,04,22,17.10
2015,07,20,04,23,17.10
2015,07,20,04,24,17.00
2015,07,20,04,25,17.00
2015,07,20,04,26,17.00
2015,07,20,04,27,17.00
2015,07,20,04,28,17.00
2015,07,20,04,29,17.00
2015,07,20,04,30,16.90
2015,07,20,04,31,16.90
2015,07,20,04,32,16.90
2015,07,20,04,33,16.90
2015,07,20,04,34,16.90
2015,07,20,04,35,16.80
2015,07,20,04,36,16.80
2015,07,20,04,37,16.80
2015,07,20,04,38,16.80
2015,07,20,04,39,16.80
2015,07,20,04,40,16.80
2015,07,20,04,41,16.80
2015,07,20,04,42,16.70
2015,07,20,04,43,16.70
2015,07,20,04,44,16.70
2015,07,20,04,45,16.70
2015,07,20,04,46,16.70
2015,07,20,04,47,16.60
2015,07,20,04,48,16.60
2015,07,20,04,49,16.60
2015,07,20,04,50,16.60
2015,07,20,04,51,16.60
2015,07,20,04,52,16.50
2015,07,20,04,53,16.50
2015,07,20,04,54,16.50
2015,07,20,04,55,16.50
2015,07,20,04,56,16.50
2015,07,20,04,57,16.50
2015,07,20,04,58,16.40
2015,07,20,04,59,16.40
2015,07,20,05,00,16.40
2015,07,20,05,01,16.40
2015,07,20,05,02,16.40
2015,07,20,05,03,16.40
2015,07,20,05,04,16.30
2015,07,20,05,05,16.30
2015,07,20,05,06,16.30
2015,07,20,05,07,16.30
2015,07,20,05,08,16.30
2015,07,20,05,09,16.30
2015,07,20,05,10,16.30
2015,07,20,05,11,16.20
2015,07,20,05,12,16.20
2015,07,20,05,13,16.20
2015,07,20,05,14,16.20
2015,07,20,05,15,16.20
2015,07,20,05,16,16.20
2015,07,20,05,17,16.10
2015,07,20,05,18,16.10
2015,07,20,05,19,16.10
2015,07,20,05,20,16.10
2015,07,20,05,21,16.00
2015,07,20,05,22,16.00
2015,07,20,05,23,16.00
2015,07,20,05,24,15.90
2015,07,20,05,25,15.90
2015,07,20,05,26,15.90
2015,07,20,05,27,15.80
2015,07,20,05,28,15.80
2015,07,20,05,29,15.80
2015,07,20,05,30,15.80
2015,07,20,05,31,15.70
2015,07,20,05,32,15.70
2015,07,20,05,33,15.70
2015,07,20,05,34,15.70
2015,07,20,05,35,15.60
2015,07,20,05,36,15.60
2015,07,20,05,37,15.60
2015,07,20,05,38,15.50
2015,07,20,05,39,15.50
2015,07,20,05,40,15.40
2015,07,20,05,41,15.40
2015,07,20,05,42,15.40
2015,07,20,05,43,15.40
2015,07,20,05,44,15.30
2015,07,20,05,45,15.30
2015,07,20,05,46,15.30
2015,07,20,05,47,15.30
2015,07,20,05,48,15.30
2015,07,20,05,49,15.30
2015,07,20,05,50,15.30
2015,07,20,05,51,15.20
2015,07,20,05,52,15.20
2015,07,20,05,53,15.20
2015,07,20,05,54,15.20
2015,07,20,05,55,15.20
2015,07,20,05,56,15.10
2015,07,20,05,57,15.10
2015,07,20,05,58,15.10
2015,07,20,05,59,15.00
2015,07,20,06,00,15.00
2015,07,20,06,01,15.00
2015,07,20,06,02,15.00
2015,07,20,06,03,15.00
2015,07,20,06,04,15.00
2015,07,20,06,05,15.00
2015,07,20,06,06,15.00
2015,07,20,06,07,15.00
2015,07,20,06,08,15.00
2015,07,20,06,09,15.00
2015,07,20,06,10,15.00
2015,07,20,06,11,15.00
2015,07,20,06,12,15.00
2015,07,20,06,13,15.00
2015,07,20,06,14,15.00
2015,07,20,06,15,15.00
2015,07,20,06,16,15.00
2015,07,20,06,17,15.00
2015,07,20,06,18,15.00
2015,07,20,06,19,15.00
2015,07,20,06,20,15.00
2015,07,20,06,21,15.00
2015,07,20,06,22,15.00
2015,07,20,06,23,15.00
2015,07,20,06,24,15.00
2015,07,20,06,25,15.00
2015,07,20,06,26,15.00
2015,07,20,06,27,15.00
2015,07,20,06,28,15.00
2015,07,20,06,29,15.00
2015,07,20,06,30,15.00
2015,07,20,06,31,15.00
2015,07,20,06,32,15.00
2015,07,20,06,33,15.00
2015,07,20,06,34,15.00
2015,07,20,06,35,15.00
2015,07,20,06,36,15.00
2015,07,20,06,37,15.00
2015,07,20,06,38,15.00
2015,07,20,06,39,15.00
2015,07,20,06,40,15.00
2015,07,20,06,41,15.00
2015,07,20,06,42,15.00
2015,07,20,06,43,15.00
2015,07,20,06,44,15.00
2015,07,20,06,45,15.00
2015,07,20,06,46,15.00
2015,07,20,06,47,15.00
2015,07,20,06,48,15.00
2015,07,20,06,49,15.00
2015,07,20,06,50,15.00
2015,07,20,06,51,15.00
2015,07,20,06,52,15.00
2015,07,20,06,53,15.00
2015,07,20,06,54,15.00
2015,07,20,06,55,15.00
2015,07,20,06,56,15.00
2015,07,20,06,57,15.00
2015,07,20,06,58,15.10
2015,07,20,06,59,15.10
2015,07,20,07,00,15.10
2015,07,20,07,01,15.20
2015,07,20,07,02,15.20
2015,07,20,07,03,15.20
2015,07,20,07,04,15.20
2015,07,20,07,05,15.20
2015,07,20,07,06,15.30
2015,07,20,07,07,15.30
2015,07,20,07,08,15.30
2015,07,20,07,09,15.30
2015,07,20,07,10,15.40
2015,07,20,07,11,15.50
2015,07,20,07,12,15.60
2015,07,20,07,13,15.60
2015,07,20,07,14,15.70
2015,07,20,07,15,15.70
2015,07,20,07,16,15.80
2015,07,20,07,17,15.90
2015,07,20,07,18,16.00
2015,07,20,07,19,16.10
2015,07,20,07,20,16.20
2015,07,20,07,21,16.30
2015,07,20,07,22,16.40
2015,07,20,07,23,16.50
2015,07,20,07,24,16.60
2015,07,20,07,25,16.60
2015,07,20,07,26,16.70
2015,07,20,07,27,16.80
2015,07,20,07,28,16.90
2015,07,20,07,29,17.00
2015,07,20,07,30,17.10
2015,07,20,07,31,17.10
2015,07,20,07,32,17.20
2015,07,20,07,33,17.30
2015,07,20,07,34,17.50
2015,07,20,07,35,17.60
2015,07,20,07,36,17.70
2015,07,20,07,37,17.80
2015,07,20,07,38,17.80
2015,07,20,07,39,17.90
2015,07,20,07,40,18.00
2015,07,20,07,41,18.10
2015,07,20,07,42,18.10
2015,07,20,07,43,18.20
2015,07,20,07,44,18.20
2015,07,20,07,45,18.20
2015,07,20,07,46,18.30
2015,07,20,07,47,18.30
2015,07,20,07,48,18.30
2015,07,20,07,49,18.40
2015,07,20,07,50,18.40
2015,07,20,07,51,18.50
2015,07,20,07,52,18.50
2015,07,20,07,53,18.60
2015,07,20,07,54,18.70
2015,07,20,07,55,18.70
2015,07,20,07,56,18.70
2015,07,20,07,57,18.70
2015,07,20,07,58,18.80
2015,07,20,07,59,18.80
2015,07,20,08,00,18.80
2015,07,20,08,01,18.90
2015,07,20,08,02,18.90
2015,07,20,08,03,19.00
2015,07,20,08,04,19.00
2015,07,20,08,05,19.10
2015,07,20,08,06,19.10
2015,07,20,08,07,19.20
2015,07,20,08,08,19.20
2015,07,20,08,09,19.30
2015,07,20,08,10,19.40
2015,07,20,08,11,19.50
2015,07,20,08,12,19.50
2015,07,20,08,13,19.60
2015,07,20,08,14,19.60
2015,07,20,08,15,19.60
2015,07,20,08,16,19.60
2015,07,20,08,17,19.60
2015,07,20,08,18,19.70
2015,07,20,08,19,19.70
2015,07,20,08,20,19.80
2015,07,20,08,21,19.80
2015,07,20,08,22,19.80
2015,07,20,08,23,19.90
2015,07,20,08,24,20.00
2015,07,20,08,25,20.00
2015,07,20,08,26,20.10
2015,07,20,08,27,20.10
2015,07,20,08,28,20.20
2015,07,20,08,29,20.20
2015,07,20,08,30,20.30
2015,07,20,08,31,20.40
2015,07,20,08,32,20.50
2015,07,20,08,33,20.50
2015,07,20,08,34,20.70
2015,07,20,08,35,20.70
2015,07,20,08,36,20.70
2015,07,20,08,37,20.80
2015,07,20,08,38,20.80
2015,07,20,08,39,20.90
2015,07,20,08,40,20.90
2015,07,20,08,41,20.90
2015,07,20,08,42,20.90
2015,07,20,08,43,20.90
2015,07,20,08,44,20.80
2015,07,20,08,45,20.80
2015,07,20,08,46,20.80
2015,07,20,08,47,20.80
2015,07,20,08,48,20.80
2015,07,20,08,49,20.90
2015,07,20,08,50,21.00
2015,07,20,08,51,21.10
2015,07,20,08,52,21.10
2015,07,20,08,53,21.20
2015,07,20,08,54,21.20
2015,07,20,08,55,21.20
2015,07,20,08,56,21.20
2015,07,20,08,57,21.20
2015,07,20,08,58,21.30
2015,07,20,08,59,21.30
2015,07,20,09,00,21.40
2015,07,20,09,01,21.50
2015,07,20,09,02,21.50
2015,07,20,09,03,21.60
2015,07,20,09,04,21.60
2015,07,20,09,05,21.70
2015,07,20,09,06,21.80
2015,07,20,09,07,21.80
2015,07,20,09,08,21.80
2015,07,20,09,09,21.80
2015,07,20,09,10,21.80
2015,07,20,09,11,21.80
2015,07,20,09,12,21.90
2015,07,20,09,13,21.90
2015,07,20,09,14,21.90
2015,07,20,09,15,21.90
2015,07,20,09,16,21.80
2015,07,20,09,17,21.80
2015,07,20,09,18,21.80
2015,07,20,09,19,21.80
2015,07,20,09,20,21.80
2015,07,20,09,21,21.80
2015,07,20,09,22,21.80
2015,07,20,09,23,21.80
2015,07,20,09,24,21.70
2015,07,20,09,25,21.70
2015,07,20,09,26,21.70
2015,07,20,09,27,21.80
2015,07,20,09,28,21.80
2015,07,20,09,29,21.90
2015,07,20,09,30,22.00
2015,07,20,09,31,22.10
2015,07,20,09,32,22.20
2015,07,20,09,33,22.20
2015,07,20,09,34,22.20
2015,07,20,09,35,22.20
2015,07,20,09,36,22.30
2015,07,20,09,37,22.40
2015,07,20,09,38,22.50
2015,07,20,09,39,22.60
2015,07,20,09,40,22.60
2015,07,20,09,41,22.60
2015,07,20,09,42,22.60
2015,07,20,09,43,22.60
2015,07,20,09,44,22.60
2015,07,20,09,45,22.60
2015,07,20,09,46,22.60
2015,07,20,09,47,22.50
2015,07,20,09,48,22.40
2015,07,20,09,49,22.50
2015,07,20,09,50,22.50
2015,07,20,09,51,22.60
2015,07,20,09,52,22.70
2015,07,20,09,53,22.80
2015,07,20,09,54,22.90
2015,07,20,09,55,23.00
2015,07,20,09,56,23.00
2015,07,20,09,57,23.10
2015,07,20,09,58,23.00
2015,07,20,09,59,23.00
2015,07,20,10,00,22.90
2015,07,20,10,01,22.90
2015,07,20,10,02,23.00
2015,07,20,10,03,23.00
2015,07,20,10,04,22.90
2015,07,20,10,05,22.90
2015,07,20,10,06,22.90
2015,07,20,10,07,22.80
2015,07,20,10,08,22.70
2015,07,20,10,09,22.60
2015,07,20,10,10,22.60
2015,07,20,10,11,22.60
2015,07,20,10,12,22.60
2015,07,20,10,13,22.60
2015,07,20,10,14,22.60
2015,07,20,10,15,22.50
2015,07,20,10,16,22.40
2015,07,20,10,17,22.30
2015,07,20,10,18,22.30
2015,07,20,10,19,22.30
2015,07,20,10,20,22.40
2015,07,20,10,21,22.40
2015,07,20,10,22,22.50
2015,07,20,10,23,22.60
2015,07,20,10,24,22.70
2015,07,20,10,25,22.70
2015,07,20,10,26,22.70
2015,07,20,10,27,22.70
2015,07,20,10,28,22.70
2015,07,20,10,29,22.70
2015,07,20,10,30,22.80
2015,07,20,10,31,22.90
2015,07,20,10,32,23.10
2015,07,20,10,33,23.20
2015,07,20,10,34,23.30
2015,07,20,10,35,23.40
2015,07,20,10,36,23.40
2015,07,20,10,37,23.40
2015,07,20,10,38,23.30
2015,07,20,10,39,23.20
2015,07,20,10,40,23.00
2015,07,20,10,41,23.00
2015,07,20,10,42,23.00
2015,07,20,10,43,23.00
2015,07,20,10,44,23.00
2015,07,20,10,45,23.00
2015,07,20,10,46,23.00
2015,07,20,10,47,23.00
2015,07,20,10,48,23.10
2015,07,20,10,49,23.20
2015,07,20,10,50,23.30
2015,07,20,10,51,23.30
2015,07,20,10,52,23.20
2015,07,20,10,53,23.30
2015,07,20,10,54,23.30
2015,07,20,10,55,23.30
2015,07,20,10,56,23.40
2015,07,20,10,57,23.40
2015,07,20,10,58,23.50
2015,07,20,10,59,23.60
2015,07,20,11,00,23.70
2015,07,20,11,01,23.80
2015,07,20,11,02,23.90
2015,07,20,11,03,24.00
2015,07,20,11,04,24.00
2015,07,20,11,05,24.00
2015,07,20,11,06,24.10
2015,07,20,11,07,24.20
2015,07,20,11,08,24.20
2015,07,20,11,09,24.20
2015,07,20,11,10,24.30
2015,07,20,11,11,24.40
2015,07,20,11,12,24.50
2015,07,20,11,13,24.50
2015,07,20,11,14,24.60
2015,07,20,11,15,24.70
2015,07,20,11,16,24.60
2015,07,20,11,17,24.60
2015,07,20,11,18,24.50
2015,07,20,11,19,24.30
2015,07,20,11,20,24.20
2015,07,20,11,21,24.10
2015,07,20,11,22,24.10
2015,07,20,11,23,24.20
2015,07,20,11,24,24.20
2015,07,20,11,25,24.20
2015,07,20,11,26,24.30
2015,07,20,11,27,24.40
2015,07,20,11,28,24.60
2015,07,20,11,29,24.70
2015,07,20,11,30,24.80
2015,07,20,11,31,24.90
2015,07,20,11,32,25.00
2015,07,20,11,33,25.10
2015,07,20,11,34,25.10
2015,07,20,11,35,25.20
2015,07,20,11,36,25.20
2015,07,20,11,37,25.20
2015,07,20,11,38,25.10
2015,07,20,11,39,25.10
2015,07,20,11,40,25.00
2015,07,20,11,41,25.00
2015,07,20,11,42,25.00
2015,07,20,11,43,25.10
2015,07,20,11,44,25.10
2015,07,20,11,45,25.20
2015,07,20,11,46,25.20
2015,07,20,11,47,25.20
2015,07,20,11,48,25.20
2015,07,20,11,49,25.10
2015,07,20,11,50,25.00
2015,07,20,11,51,25.00
2015,07,20,11,52,24.90
2015,07,20,11,53,24.90
2015,07,20,11,54,24.90
2015,07,20,11,55,24.80
2015,07,20,11,56,24.80
2015,07,20,11,57,24.80
2015,07,20,11,58,24.60
2015,07,20,11,59,24.40
2015,07,20,12,00,24.30
2015,07,20,12,01,24.20
2015,07,20,12,02,24.30
2015,07,20,12,03,24.40
2015,07,20,12,04,24.40
2015,07,20,12,05,24.40
2015,07,20,12,06,24.50
2015,07,20,12,07,24.60
2015,07,20,12,08,24.70
2015,07,20,12,09,24.80
2015,07,20,12,10,24.90
2015,07,20,12,11,25.00
2015,07,20,12,12,25.20
2015,07,20,12,13,25.30
2015,07,20,12,14,25.50
2015,07,20,12,15,25.70
2015,07,20,12,16,25.70
2015,07,20,12,17,25.60
2015,07,20,12,18,25.50
2015,07,20,12,19,25.50
2015,07,20,12,20,25.50
2015,07,20,12,21,25.50
2015,07,20,12,22,25.50
2015,07,20,12,23,25.60
2015,07,20,12,24,25.60
2015,07,20,12,25,25.70
2015,07,20,12,26,25.70
2015,07,20,12,27,25.80
2015,07,20,12,28,25.80
2015,07,20,12,29,25.80
2015,07,20,12,30,25.80
2015,07,20,12,31,25.90
2015,07,20,12,32,25.90
2015,07,20,12,33,26.00
2015,07,20,12,34,26.00
2015,07,20,12,35,26.00
2015,07,20,12,36,25.90
2015,07,20,12,37,25.90
2015,07,20,12,38,25.90
2015,07,20,12,39,25.70
2015,07,20,12,40,25.60
2015,07,20,12,41,25.60
2015,07,20,12,42,25.70
2015,07,20,12,43,25.60
2015,07,20,12,44,25.50
2015,07,20,12,45,25.50
2015,07,20,12,46,25.50
2015,07,20,12,47,25.50
2015,07,20,12,48,25.60
2015,07,20,12,49,25.60
2015,07,20,12,50,25.70
2015,07,20,12,51,25.80
2015,07,20,12,52,25.90
2015,07,20,12,53,25.90
2015,07,20,12,54,25.90
2015,07,20,12,55,25.90
2015,07,20,12,56,26.00
2015,07,20,12,57,26.10
2015,07,20,12,58,26.20
2015,07,20,12,59,26.20
2015,07,20,13,00,26.10
2015,07,20,13,01,26.00
2015,07,20,13,02,25.90
2015,07,20,13,03,25.90
2015,07,20,13,04,25.70
2015,07,20,13,05,25.40
2015,07,20,13,06,25.00
2015,07,20,13,07,24.80
2015,07,20,13,08,24.70
2015,07,20,13,09,24.70
2015,07,20,13,10,24.60
2015,07,20,13,11,24.60
2015,07,20,13,12,24.70
2015,07,20,13,13,24.80
2015,07,20,13,14,25.00
2015,07,20,13,15,25.20
2015,07,20,13,16,25.30
2015,07,20,13,17,25.40
2015,07,20,13,18,25.40
2015,07,20,13,19,25.40
2015,07,20,13,20,25.40
2015,07,20,13,21,25.30
2015,07,20,13,22,25.30
2015,07,20,13,23,25.40
2015,07,20,13,24,25.40
2015,07,20,13,25,25.50
2015,07,20,13,26,25.70
2015,07,20,13,27,25.80
2015,07,20,13,28,25.90
2015,07,20,13,29,25.90
2015,07,20,13,30,26.00
2015,07,20,13,31,26.20
2015,07,20,13,32,26.20
2015,07,20,13,33,26.20
2015,07,20,13,34,26.20
2015,07,20,13,35,26.10
2015,07,20,13,36,26.10
2015,07,20,13,37,26.10
2015,07,20,13,38,26.20
2015,07,20,13,39,26.30
2015,07,20,13,40,26.30
2015,07,20,13,41,26.40
2015,07,20,13,42,26.50
2015,07,20,13,43,26.50
2015,07,20,13,44,26.60
2015,07,20,13,45,26.60
2015,07,20,13,46,26.40
2015,07,20,13,47,26.20
2015,07,20,13,48,26.20
2015,07,20,13,49,26.10
2015,07,20,13,50,26.10
2015,07,20,13,51,26.00
2015,07,20,13,52,25.90
2015,07,20,13,53,25.90
2015,07,20,13,54,25.90
2015,07,20,13,55,25.90
2015,07,20,13,56,25.80
2015,07,20,13,57,25.70
2015,07,20,13,58,25.70
2015,07,20,13,59,25.60
2015,07,20,14,00,25.60
2015,07,20,14,01,25.50
2015,07,20,14,02,25.40
2015,07,20,14,03,25.40
2015,07,20,14,04,25.50
2015,07,20,14,05,25.60
2015,07,20,14,06,25.70
2015,07,20,14,07,25.80
2015,07,20,14,08,25.80
2015,07,20,14,09,25.80
2015,07,20,14,10,25.90
2015,07,20,14,11,25.90
2015,07,20,14,12,25.90
2015,07,20,14,13,26.00
2015,07,20,14,14,26.20
2015,07,20,14,15,26.30
2015,07,20,14,16,26.40
2015,07,20,14,17,26.50
2015,07,20,14,18,26.40
2015,07,20,14,19,26.40
2015,07,20,14,20,26.30
2015,07,20,14,21,26.30
2015,07,20,14,22,26.10
2015,07,20,14,23,25.90
2015,07,20,14,24,25.70
2015,07,20,14,25,25.70
2015,07,20,14,26,25.70
2015,07,20,14,27,25.80
2015,07,20,14,28,25.80
2015,07,20,14,29,25.90
2015,07,20,14,30,25.90
2015,07,20,14,31,25.90
2015,07,20,14,32,25.90
2015,07,20,14,33,25.90
2015,07,20,14,34,25.90
2015,07,20,14,35,25.90
2015,07,20,14,36,25.90
2015,07,20,14,37,26.00
2015,07,20,14,38,26.10
2015,07,20,14,39,26.20
2015,07,20,14,40,26.40
2015,07,20,14,41,26.50
2015,07,20,14,42,26.60
2015,07,20,14,43,26.70
2015,07,20,14,44,26.70
2015,07,20,14,45,26.70
2015,07,20,14,46,26.70
2015,07,20,14,47,26.70
2015,07,20,14,48,26.70
2015,07,20,14,49,26.80
2015,07,20,14,50,26.80
2015,07,20,14,51,26.80
2015,07,20,14,52,26.80
2015,07,20,14,53,26.70
2015,07,20,14,54,26.40
2015,07,20,14,55,26.30
2015,07,20,14,56,26.20
2015,07,20,14,57,25.90
2015,07,20,14,58,25.90
2015,07,20,14,59,25.90
2015,07,20,15,00,25.70
2015,07,20,15,01,25.50
2015,07,20,15,02,25.30
2015,07,20,15,03,25.30
2015,07,20,15,04,25.30
2015,07,20,15,05,25.40
2015,07,20,15,06,25.50
2015,07,20,15,07,25.70
2015,07,20,15,08,25.70
2015,07,20,15,09,25.80
2015,07,20,15,10,25.90
2015,07,20,15,11,25.90
2015,07,20,15,12,25.90
2015,07,20,15,13,26.00
2015,07,20,15,14,26.10
2015,07,20,15,15,26.00
2015,07,20,15,16,25.90
2015,07,20,15,17,25.90
2015,07,20,15,18,25.60
2015,07,20,15,19,25.50
2015,07,20,15,20,25.40
2015,07,20,15,21,25.40
2015,07,20,15,22,25.50
2015,07,20,15,23,25.60
2015,07,20,15,24,25.70
2015,07,20,15,25,25.90
2015,07,20,15,26,26.00
2015,07,20,15,27,26.10
2015,07,20,15,28,26.20
2015,07,20,15,29,26.20
2015,07,20,15,30,26.20
2015,07,20,15,31,26.30
2015,07,20,15,32,26.40
2015,07,20,15,33,26.50
2015,07,20,15,34,26.40
2015,07,20,15,35,26.20
2015,07,20,15,36,26.10
2015,07,20,15,37,26.10
2015,07,20,15,38,26.00
2015,07,20,15,39,26.00
2015,07,20,15,40,25.90
2015,07,20,15,41,25.90
2015,07,20,15,42,25.80
2015,07,20,15,43,25.70
2015,07,20,15,44,25.70
2015,07,20,15,45,25.70
2015,07,20,15,46,25.60
2015,07,20,15,47,25.60
2015,07,20,15,48,25.60
2015,07,20,15,49,25.70
2015,07,20,15,50,25.70
2015,07,20,15,51,25.80
2015,07,20,15,52,25.80
2015,07,20,15,53,25.80
2015,07,20,15,54,25.70
2015,07,20,15,55,25.70
2015,07,20,15,56,25.70
2015,07,20,15,57,25.60
2015,07,20,15,58,25.50
2015,07,20,15,59,25.40
2015,07,20,16,00,25.30
2015,07,20,16,01,25.20
2015,07,20,16,02,25.10
2015,07,20,16,03,25.00
2015,07,20,16,04,24.80
2015,07,20,16,05,24.60
2015,07,20,16,06,24.60
2015,07,20,16,07,24.60
2015,07,20,16,08,24.60
2015,07,20,16,09,24.60
2015,07,20,16,10,24.60
2015,07,20,16,11,24.60
2015,07,20,16,12,24.60
2015,07,20,16,13,24.50
2015,07,20,16,14,24.30
2015,07,20,16,15,24.20
2015,07,20,16,16,24.10
2015,07,20,16,17,24.10
2015,07,20,16,18,24.00
2015,07,20,16,19,23.90
2015,07,20,16,20,23.90
2015,07,20,16,21,23.90
2015,07,20,16,22,23.90
2015,07,20,16,23,23.90
2015,07,20,16,24,24.00
2015,07,20,16,25,24.00
2015,07,20,16,26,24.00
2015,07,20,16,27,23.90
2015,07,20,16,28,23.90
2015,07,20,16,29,23.90
2015,07,20,16,30,23.80
2015,07,20,16,31,23.80
2015,07,20,16,32,23.80
2015,07,20,16,33,23.80
2015,07,20,16,34,23.80
2015,07,20,16,35,23.80
2015,07,20,16,36,23.70
2015,07,20,16,37,23.60
2015,07,20,16,38,23.50
2015,07,20,16,39,23.40
2015,07,20,16,40,23.40
2015,07,20,16,41,23.40
2015,07,20,16,42,23.40
2015,07,20,16,43,23.30
2015,07,20,16,44,23.30
2015,07,20,16,45,23.40
2015,07,20,16,46,23.40
2015,07,20,16,47,23.40
2015,07,20,16,48,23.40
2015,07,20,16,49,23.40
2015,07,20,16,50,23.40
2015,07,20,16,51,23.30
2015,07,20,16,52,23.30
2015,07,20,16,53,23.30
2015,07,20,16,54,23.30
2015,07,20,16,55,23.30
2015,07,20,16,56,23.30
2015,07,20,16,57,23.20
2015,07,20,16,58,23.20
2015,07,20,16,59,23.20
2015,07,20,17,00,23.10
2015,07,20,17,01,23.10
2015,07,20,17,02,23.10
2015,07,20,17,03,23.20
2015,07,20,17,04,23.10
2015,07,20,17,05,23.10
2015,07,20,17,06,23.00
2015,07,20,17,07,22.90
2015,07,20,17,08,22.90
2015,07,20,17,09,22.90
2015,07,20,17,10,22.90
2015,07,20,17,11,22.90
2015,07,20,17,12,22.90
2015,07,20,17,13,22.80
2015,07,20,17,14,22.80
2015,07,20,17,15,22.80
2015,07,20,17,16,22.80
2015,07,20,17,17,22.70
2015,07,20,17,18,22.60
2015,07,20,17,19,22.60